Regional Weather Roundup
Issued by NWS

Home | Current Version | Previous Version | Text Only | Print | Product List | Glossary Off
Versions: 1 2 3 4 5 6 7 8 9 10 11 12 13 14 15 16 17 18 19 20 21 22 23 24 25 26 27 28 29 30 31 32 33 34 35 36 37 38 39 40 41 42 43 44 45 46 47 48 49 50

000
ASUS43 KOAX 190910
RWRNE

WEATHER ROUNDUP FOR NEBRASKA
NATIONAL WEATHER SERVICE OMAHA NE
400 AM CDT FRI SEP 19 2014

NOTES: SATELLITE DATA IS BEING USED TO AUGMENT CLOUD COVER ABOVE
       12000 FEET.
       "FAIR" INDICATES FEW OR NO CLOUDS BELOW 12,000 FEET WITH NO
       SIGNIFICANT WEATHER AND/OR OBSTRUCTIONS TO VISIBILITY.

  * THESE STATIONS DO NOT REPORT WEATHER SUCH AS RAIN...SNOW OR FOG.

NEZ001>004-019>022-054>056-191000-
NEBRASKA PANHANDLE

CITY           SKY/WX    TMP DP  RH WIND       PRES   REMARKS
SCOTTSBLUFF    CLEAR     71  45  39 S13       29.83F
ALLIANCE       CLEAR     55  54  96 SE5       29.83F
CHADRON        PTCLDY    70  56  61 SW12G22   29.75R
KIMBALL        CLEAR     68  42  38 SW15      29.90S
SIDNEY         CLEAR     64  50  60 SW16      29.89F
$$

NEZ057>060-069>072-079>082-191000-
SOUTHWEST NEBRASKA

CITY           SKY/WX    TMP DP  RH WIND       PRES   REMARKS
NORTH PLATTE   FOG       58  58 100 E6        29.85F VSB 1/4
IMPERIAL       CLEAR     57  54  89 SW5       29.87S
LEXINGTON      CLEAR     64  63  95 S13       29.87S
MCCOOK         CLEAR     55  55 100 NE3       29.88S FOG
OGALLALA       FOG       60  59  99 SW3       29.85F VSB 1/4
$$

NEZ005>010-023>029-035>040-094-191000-
NORTH CENTRAL NEBRASKA

CITY           SKY/WX    TMP DP  RH WIND       PRES   REMARKS
VALENTINE      CLEAR     63  61  93 S12       29.76F
AINSWORTH      CLOUDY    65  63  96 S16       29.78F
BROKEN BOW     CLEAR     64  62  93 S10       29.85F
O`NEILL        CLOUDY    68  65  90 S16G29    29.82F
ORD            CLOUDY    67  63  87 S14G22    29.84F
THEDFORD       CLOUDY    64  63  97 S7        29.83F FOG
$$

NEZ041-046>049-061>064-073>077-083>087-191000-
SOUTH CENTRAL NEBRASKA

CITY           SKY/WX    TMP DP  RH WIND       PRES   REMARKS
GRAND ISLAND   MOCLDY    66  63  90 S15G25    29.89F
AURORA         CLOUDY    65  64  96 S14       29.90F
HASTINGS       CLEAR     65  61  87 S12G22    29.90F
HEBRON         PTCLDY    65  62  88 S8        29.94F
HOLDREGE       CLEAR     63  60  90 S12       29.89S
KEARNEY *      PTCLDY    64  61  88 SE14      29.89F
YORK           CLOUDY    64  64 100 S13G18    29.92F
$$

NEZ011>018-030>034-042>045-191000-
NORTHEAST NEBRASKA

CITY           SKY/WX    TMP DP  RH WIND       PRES   REMARKS
NORFOLK        CLOUDY    63  61  93 S18G30    29.88F FOG
ALBION         CLOUDY    63  61  94 S13       29.88F FOG
BLAIR          CLOUDY    63  60  90 S15       29.95F FOG
COLUMBUS *     CLOUDY    63  61  94 S13       29.92F
FREMONT        CLOUDY    64  60  90 SE10G16   29.94F
TEKAMAH        CLOUDY    63  60  90 S13       29.93F
WAYNE          CLOUDY    64  60  90 S14G23    29.89F
$$

NEZ050>053-065>068-078-088>093-191000-
SOUTHEAST NEBRASKA

CITY           SKY/WX    TMP DP  RH WIND       PRES   REMARKS
LINCOLN        CLOUDY    64  61  90 S12       29.95F
OMAHA EPPLEY   CLOUDY    63  59  87 S13G24    29.96F
BEATRICE       CLOUDY    63  61  94 S8        29.96S
FALLS CITY     FOG       60  60 100 SE5       29.98S VSB 1/2
NEBRASKA CITY  CLOUDY    61  60  97 S9G17     29.98S FOG
PLATTSMOUTH    CLOUDY    61  59  93 SE10G16   29.97S FOG
$$

NEZ044-045-051>053-067-191000-
OMAHA AREA

CITY           SKY/WX    TMP DP  RH WIND       PRES   REMARKS
OMAHA EPPLEY   CLOUDY    63  59  87 S13G24    29.96F
BLAIR          CLOUDY    63  60  90 S15       29.95F FOG
FREMONT        CLOUDY    64  60  90 SE10G16   29.94F
MILLARD        CLOUDY    63  60  91 SE8       29.95F FOG
OFFUTT AFB     CLOUDY    62  62 100 SE10      29.96F
PLATTSMOUTH    CLOUDY    61  59  93 SE10G16   29.97S FOG
WAHOO          CLOUDY    63  59  88 S8        29.94F
$$



USA.gov is the U.S. government's official web portal to all federal, state and local government web resources and services.